GW5597 Weather Reports


time (UTC)temp
C
wind
direction
speed
KPH
gust
KPH
rain 1hr
cm
rain 24hr
cm
rain mn
cm
humidity
%
barometer
mb
20260505181627 15 85 1.6 3.2 0.00 0.18 0.00 79 1016.3
20260505181128 15 99 1.6 3.2 0.00 0.18 0.00 80 1016.2
20260505180849 15 25 1.6 4.8 0.00 0.18 0.00 79 1016.2
20260505180612 15 21 1.6 4.8 0.00 0.18 0.00 79 1016.2
20260505175625 15 178 1.6 3.2 0.00 0.18 0.00 79 1016.2
20260505175125 15 92 1.6 4.8 0.00 0.18 0.00 80 1016.2
20260505174624 15 0 1.6 4.8 0.00 0.18 0.00 80 1016.2
20260505174124 15 96 1.6 3.2 0.00 0.18 0.00 79 1016.2
20260505173624 15 173 1.6 3.2 0.00 0.18 0.00 80 1016.2
20260505173124 15 225 1.6 3.2 0.00 0.18 0.00 79 1016.2
20260505172624 14 116 1.6 3.2 0.00 0.18 0.00 81 1016.1
20260505172124 14 82 1.6 4.8 0.00 0.18 0.00 80 1016.1
20260505171624 14 103 1.6 4.8 0.00 0.18 0.00 81 1016.0
20260505171356 14 142 1.6 4.8 0.00 0.18 0.00 80 1016.0
20260505170624 14 181 1.6 3.2 0.00 0.18 0.00 80 1015.9
20260505170124 14 87 1.6 3.2 0.00 0.18 0.00 80 1015.9
20260505165624 14 99 1.6 3.2 0.00 0.18 0.00 80 1015.9
20260505165121 14 135 1.6 3.2 0.00 0.18 0.00 80 1015.9
20260505164620 14 175 1.6 3.2 0.00 0.18 0.00 80 1015.8
20260505164120 14 123 1.6 3.2 0.00 0.18 0.00 81 1015.9
20260505163624 14 71 1.6 3.2 0.00 0.18 0.00 82 1015.8
20260505163121 14 356 1.6 3.2 0.00 0.18 0.00 82 1015.8
20260505162622 14 87 1.6 4.8 0.00 0.18 0.00 81 1015.7
20260505162123 13 233 1.6 4.8 0.00 0.18 0.00 82 1015.8
20260505161842 13 82 1.6 3.2 0.00 0.18 0.00 83 1015.7
20260505161342 13 167 1.6 4.8 0.00 0.18 0.00 84 1015.7
20260505160844 13 191 1.6 4.8 0.00 0.18 0.00 84 1015.7
20260505160123 13 122 1.6 3.2 0.00 0.18 0.00 85 1015.7
20260505153114 13 0 1.6 4.8 0.00 0.18 0.00 87 1015.7
20260505152614 13 124 1.6 4.8 0.00 0.18 0.00 87 1015.6
20260505152114 13 221 1.6 3.2 0.00 0.18 0.00 87 1015.6
20260505151614 13 61 1.6 3.2 0.00 0.18 0.00 87 1015.6
20260505151114 13 193 1.6 3.2 0.00 0.18 0.00 87 1015.6
20260505150614 12 162 1.6 3.2 0.00 0.18 0.00 87 1015.6
20260505150114 12 126 1.6 3.2 0.00 0.18 0.00 87 1015.5
20260505140608 12 121 1.6 3.2 0.00 0.18 0.00 89 1015.0
20260505140108 12 173 1.6 3.2 0.00 0.18 0.00 88 1015.0
20260505124600 12 90 1.6 3.2 0.00 0.18 0.00 87 1014.6
20260505124318 12 160 1.6 3.2 0.00 0.18 0.00 87 1014.6
20260505123600 12 0 1.6 3.2 0.00 0.18 0.00 87 1014.5
20260505123315 12 140 1.6 3.2 0.00 0.18 0.00 87 1014.5
20260505122557 12 183 1.6 1.6 0.00 0.18 0.00 87 1014.6
20260505122538 12 157 1.6 3.2 0.00 0.18 0.00 87 1014.6
20260505121817 12 89 1.6 3.2 0.00 0.18 0.00 87 1014.5
20260505121057 12 176 1.6 4.8 0.00 0.18 0.00 87 1014.5
20260505120833 12 0 1.6 4.8 0.00 0.18 0.00 87 1014.5
20260505120320 12 218 0.0 3.2 0.00 0.18 0.00 87 1014.5
20260505115557 12 161 0.0 1.6 0.00 0.18 0.00 87 1014.5
20260505115057 12 0 1.6 3.2 0.00 0.18 0.00 87 1014.5
20260505114555 12 178 1.6 3.2 0.00 0.18 0.00 87 1014.5
20260505114054 12 173 0.0 3.2 0.00 0.18 0.00 87 1014.5
20260505113554 12 126 0.0 3.2 0.00 0.18 0.00 87 1014.5
20260505113054 12 78 1.6 3.2 0.00 0.18 0.00 86 1014.4
20260505112554 12 149 1.6 3.2 0.00 0.18 0.00 86 1014.5
20260505112053 12 80 1.6 3.2 0.00 0.18 0.00 86 1014.5
20260505111554 12 147 1.6 3.2 0.00 0.18 0.00 86 1014.4
20260505111053 12 110 1.6 3.2 0.00 0.18 0.00 87 1014.4
20260505110554 12 183 1.6 3.2 0.00 0.18 0.00 87 1014.4
20260505102049 12 104 1.6 3.2 0.00 0.18 0.00 85 1014.0
20260505101548 12 0 1.6 3.2 0.00 0.18 0.00 85 1013.9
20260505101049 12 72 1.6 3.2 0.00 0.18 0.00 86 1014.0
20260505100549 12 149 1.6 3.2 0.00 0.18 0.00 85 1014.0
20260505100313 12 112 1.6 3.2 0.00 0.18 0.00 85 1014.0
20260505095545 12 98 0.0 3.2 0.00 0.18 0.00 85 1014.0
20260505095043 12 68 0.0 3.2 0.00 0.18 0.00 85 1014.0
20260505094539 13 90 1.6 3.2 0.00 0.18 0.00 85 1014.0
20260505094039 13 145 1.6 3.2 0.00 0.18 0.00 84 1013.9
20260505093539 13 181 1.6 3.2 0.00 0.18 0.00 83 1013.9
20260505093316 13 62 1.6 3.2 0.00 0.18 0.00 83 1013.8
20260505092539 13 95 1.6 3.2 0.00 0.18 0.00 83 1013.8
20260505092300 13 133 1.6 3.2 0.00 0.18 0.00 83 1013.8
20260505091539 13 189 1.6 3.2 0.00 0.18 0.00 83 1013.7
20260505091040 13 155 1.6 3.2 0.00 0.18 0.00 83 1013.7
20260505090540 13 75 1.6 3.2 0.00 0.18 0.00 83 1013.6
20260505090259 13 73 1.6 3.2 0.00 0.18 0.00 83 1013.5
20260505085534 13 175 1.6 3.2 0.00 0.18 0.00 82 1013.5
20260505085034 13 158 1.6 3.2 0.00 0.18 0.00 82 1013.5
20260505084531 13 81 1.6 3.2 0.00 0.18 0.00 83 1013.6
20260505084031 13 0 1.6 1.6 0.00 0.18 0.00 84 1013.5
20260505083528 13 25 0.0 1.6 0.00 0.18 0.00 85 1013.5
20260505083253 13 88 0.0 1.6 0.00 0.18 0.00 85 1013.5
20260505082528 13 0 1.6 3.2 0.00 0.18 0.00 85 1013.5
20260505082029 14 94 1.6 3.2 0.00 0.18 0.00 84 1013.4
20260505081529 14 287 1.6 3.2 0.00 0.18 0.00 84 1013.4
20260505081029 14 23 1.6 3.2 0.00 0.18 0.00 84 1013.4
20260505080526 14 2 1.6 3.2 0.00 0.18 0.00 83 1013.4
20260505080027 14 66 1.6 3.2 0.00 0.18 0.00 83 1013.3
20260505075527 14 84 1.6 3.2 0.00 0.18 0.00 83 1013.3
20260505075027 14 73 1.6 3.2 0.00 0.18 0.00 83 1013.3
20260505074527 15 162 1.6 3.2 0.00 0.18 0.00 82 1013.3
20260505074027 15 111 1.6 3.2 0.00 0.18 0.00 81 1013.1
20260505073524 15 79 1.6 3.2 0.00 0.18 0.00 80 1013.1
20260505073024 15 251 1.6 3.2 0.00 0.18 0.00 80 1013.0
20260505072524 15 80 1.6 4.8 0.00 0.18 0.00 80 1012.9
20260505072021 15 76 1.6 4.8 0.00 0.18 0.00 79 1012.9
20260505071522 15 162 1.6 3.2 0.00 0.18 0.00 80 1012.8
20260505071022 15 257 1.6 3.2 0.00 0.18 0.00 79 1012.8
20260505070746 15 136 1.6 3.2 0.00 0.18 0.00 79 1012.7
20260505070022 15 159 1.6 3.2 0.00 0.18 0.00 80 1012.7
20260505065749 15 25 0.0 3.2 0.00 0.18 0.18 81 1012.7
20260505065022 15 168 1.6 3.2 0.00 0.18 0.18 82 1012.6
20260505064519 15 260 0.0 3.2 0.00 0.18 0.18 82 1012.5
20260505064016 15 93 0.0 3.2 0.00 0.18 0.18 83 1012.4
20260505063516 15 175 0.0 3.2 0.00 0.18 0.18 83 1012.3
20260505063016 15 0 0.0 1.6 0.00 0.18 0.18 83 1012.3
20260505062516 15 0 0.0 1.6 0.00 0.18 0.18 82 1012.2
20260505062456 15 114 0.0 3.2 0.00 0.18 0.18 81 1012.1
20260505061514 15 115 1.6 3.2 0.00 0.18 0.18 81 1012.0
20260505061013 16 161 1.6 3.2 0.00 0.18 0.18 80 1012.0
20260505060514 16 113 1.6 3.2 0.00 0.18 0.18 79 1011.9
20260505060014 16 98 1.6 3.2 0.00 0.18 0.18 79 1012.0
20260505055514 16 131 1.6 3.2 0.00 0.18 0.18 78 1012.0
20260505055229 16 87 1.6 3.2 0.00 0.18 0.18 77 1012.0
20260505054511 16 126 0.0 3.2 0.00 0.18 0.18 77 1011.9
20260505054010 17 349 1.6 3.2 0.00 0.18 0.18 76 1011.9
20260505053737 17 99 1.6 3.2 0.00 0.18 0.18 76 1011.8
20260505053239 17 124 1.6 3.2 0.00 0.18 0.18 75 1011.8
20260505052513 17 89 1.6 4.8 0.00 0.18 0.18 74 1011.8
20260505052234 17 0 1.6 4.8 0.00 0.18 0.18 74 1011.8
20260505051510 17 20 1.6 3.2 0.00 0.18 0.18 73 1011.7
20260505051010 17 31 1.6 3.2 0.00 0.18 0.18 72 1011.6
20260505050510 18 301 1.6 3.2 0.00 0.18 0.18 72 1011.6
20260505050229 18 77 0.0 1.6 0.00 0.18 0.18 72 1011.6
20260505041509 20 329 0.0 3.2 0.00 0.18 0.18 70 1011.0
20260505041009 20 0 0.0 3.2 0.00 0.18 0.18 70 1010.9
20260505040510 20 0 0.0 3.2 0.00 0.18 0.18 70 1010.8
20260505040010 20 351 0.0 3.2 0.00 0.18 0.18 70 1010.8
20260505035509 20 70 0.0 3.2 0.00 0.18 0.18 71 1010.7
20260505035010 20 0 0.0 4.8 0.00 0.18 0.18 71 1010.6
20260505034510 20 0 1.6 4.8 0.00 0.18 0.18 70 1010.5
20260505034007 20 275 1.6 3.2 0.00 0.18 0.18 70 1010.3
20260505033506 20 0 1.6 6.4 0.00 0.18 0.18 70 1010.2
20260505033237 20 339 1.6 6.4 0.00 0.18 0.18 70 1010.2
20260505032732 21 252 1.6 4.8 0.00 0.18 0.18 70 1010.1
20260505032005 21 162 1.6 4.8 0.00 0.18 0.18 70 1010.0
20260505031732 21 0 0.0 4.8 0.00 0.18 0.18 69 1010.0
20260505031004 21 192 1.6 4.8 0.00 0.18 0.18 69 1009.9
20260505030507 21 205 1.6 4.8 0.00 0.18 0.18 69 1009.9
20260505030005 21 265 1.6 4.8 0.00 0.18 0.18 68 1009.9
20260505025504 21 195 1.6 6.4 0.00 0.18 0.18 68 1009.8
20260505025004 21 247 1.6 6.4 0.00 0.18 0.18 68 1009.8
20260505024728 21 286 1.6 6.4 0.00 0.18 0.18 67 1009.7
20260505024004 21 274 1.6 6.4 0.00 0.18 0.18 67 1009.7
20260505023504 21 179 1.6 6.4 0.00 0.18 0.18 67 1009.7
20260505023004 21 236 1.6 6.4 0.00 0.18 0.18 67 1009.7
20260505022504 22 116 1.6 6.4 0.00 0.18 0.18 66 1009.7
20260505022004 22 208 1.6 6.4 0.00 0.18 0.18 66 1009.7
20260505021737 22 185 1.6 6.4 0.00 0.18 0.18 65 1009.7
20260505021004 22 191 1.6 8.0 0.00 0.18 0.18 65 1009.7
20260505020504 22 273 1.6 8.0 0.00 0.18 0.18 64 1009.7
20260505020004 22 289 1.6 4.8 0.00 0.18 0.18 64 1009.7
20260505015504 22 0 1.6 4.8 0.00 0.18 0.18 64 1009.7
20260505015004 22 190 1.6 4.8 0.00 0.18 0.18 64 1009.7
20260505014505 22 265 1.6 4.8 0.00 0.18 0.18 63 1009.7
20260505014001 22 31 1.6 6.4 0.00 0.18 0.18 63 1009.7
20260505013501 23 179 1.6 6.4 0.00 0.18 0.18 62 1009.8
20260505013000 23 248 1.6 6.4 0.00 0.18 0.18 62 1009.8
20260505012500 23 200 1.6 6.4 0.00 0.18 0.18 60 1009.9
20260505012000 23 192 1.6 6.4 0.05 0.18 0.18 60 1009.9
20260505011500 24 154 1.6 6.4 0.13 0.18 0.18 58 1010.0
20260505011001 24 201 1.6 4.8 0.18 0.18 0.18 58 1010.0
20260505010501 23 322 1.6 6.4 0.18 0.18 0.18 58 1009.9
20260505010000 24 264 1.6 6.4 0.18 0.18 0.18 58 1010.0
20260505005501 24 195 1.6 8.0 0.18 0.18 0.18 57 1010.0
20260505004958 23 259 1.6 8.0 0.18 0.18 0.18 58 1010.1
20260505004720 23 177 1.6 9.7 0.18 0.18 0.18 58 1010.2
20260505003958 23 277 1.6 9.7 0.18 0.18 0.18 59 1010.1
20260505003459 23 0 3.2 9.7 0.18 0.18 0.18 59 1010.2
20260505003440 23 184 3.2 11.3 0.18 0.18 0.18 59 1010.1
20260505002455 23 208 3.2 11.3 0.18 0.18 0.18 59 1010.2
20260505001956 23 274 3.2 6.4 0.13 0.13 0.15 58 1010.2
20260505001456 23 192 3.2 6.4 0.05 0.05 0.05 59 1010.1
20260505000956 23 255 1.6 6.4 0.00 0.00 0.00 59 1010.1
20260505000455 23 258 1.6 11.3 0.00 0.00 0.00 59 1010.2
20260504235456 23 286 1.6 8.0 0.00 0.00 0.00 57 1010.4
20260504234956 23 284 1.6 6.4 0.00 0.00 0.00 57 1010.3
20260504234455 23 0 1.6 6.4 0.00 0.00 0.00 58 1010.3
20260504233954 23 101 3.2 8.0 0.00 0.00 0.00 58 1010.3
20260504233453 23 276 3.2 9.7 0.00 0.00 0.00 58 1010.3
20260504232954 23 178 3.2 9.7 0.00 0.00 0.00 58 1010.4
20260504232454 23 266 3.2 8.0 0.00 0.00 0.00 58 1010.4
20260504232225 23 189 3.2 8.0 0.00 0.00 0.00 58 1010.4
20260504231455 23 291 1.6 6.4 0.00 0.00 0.00 58 1010.5
20260504230954 23 248 1.6 6.4 0.00 0.00 0.00 57 1010.5
20260504230453 23 202 3.2 9.7 0.00 0.00 0.00 57 1010.6
20260504225954 23 332 3.2 9.7 0.00 0.00 0.00 57 1010.6
20260504225454 23 209 1.6 6.4 0.00 0.00 0.00 56 1010.7
20260504224954 23 0 1.6 4.8 0.00 0.00 0.00 55 1010.8
20260504224452 23 179 1.6 6.4 0.00 0.00 0.00 56 1010.8
20260504223951 23 0 1.6 6.4 0.00 0.00 0.00 56 1010.9
20260504223448 23 300 1.6 4.8 0.00 0.00 0.00 56 1010.9
20260504222943 22 226 3.2 8.0 0.00 0.00 0.00 56 1011.0
20260504222443 22 190 1.6 8.0 0.00 0.00 0.00 55 1011.1
20260504221944 23 21 1.6 8.0 0.00 0.00 0.00 54 1011.2
20260504221929 23 187 1.6 8.0 0.00 0.00 0.00 55 1011.2
20260504220945 23 231 1.6 6.4 0.00 0.00 0.00 55 1011.3
20260504220444 23 283 3.2 6.4 0.00 0.00 0.00 55 1011.3
20260504215944 23 185 1.6 6.4 0.00 0.00 0.00 54 1011.4
20260504215445 22 240 1.6 6.4 0.00 0.00 0.00 55 1011.5
20260504214944 22 30 1.6 8.0 0.00 0.00 0.00 55 1011.6
20260504214442 22 307 1.6 8.0 0.00 0.00 0.00 56 1011.6
20260504213942 22 226 1.6 8.0 0.00 0.00 0.00 57 1011.7
20260504213442 22 189 3.2 8.0 0.00 0.00 0.00 58 1011.7
20260504212942 22 336 3.2 8.0 0.00 0.00 0.00 59 1011.7
20260504212442 22 308 1.6 11.3 0.00 0.00 0.00 58 1011.9
20260504211942 21 0 1.6 11.3 0.00 0.00 0.00 59 1011.9
20260504211442 21 287 1.6 8.0 0.00 0.00 0.00 59 1012.0
20260504211208 21 188 3.2 8.0 0.00 0.00 0.00 60 1012.1
20260504210442 21 346 3.2 8.0 0.00 0.00 0.00 61 1012.1
20260504205939 21 274 3.2 9.7 0.00 0.00 0.00 61 1012.2
20260504205439 21 33 1.6 9.7 0.00 0.00 0.00 61 1012.3
20260504204940 20 217 3.2 9.7 0.00 0.00 0.00 62 1012.3
20260504204440 20 305 3.2 8.0 0.00 0.00 0.00 62 1012.4
20260504203940 21 276 3.2 8.0 0.00 0.00 0.00 62 1012.5
20260504203439 20 216 1.6 6.4 0.00 0.00 0.00 61 1012.6
20260504202939 20 283 3.2 9.7 0.00 0.00 0.00 63 1012.6
20260504202440 20 19 3.2 9.7 0.00 0.00 0.00 63 1012.6
20260504201940 19 227 1.6 6.4 0.00 0.00 0.00 64 1012.7
20260504201440 19 114 3.2 6.4 0.00 0.00 0.00 66 1012.7
20260504200940 19 164 3.2 8.0 0.00 0.00 0.00 66 1012.8
20260504200440 19 284 1.6 8.0 0.00 0.00 0.00 65 1012.9
20260504195941 19 84 1.6 8.0 0.00 0.00 0.00 64 1012.9
20260504195659 18 220 1.6 6.4 0.00 0.00 0.00 66 1013.0
20260504194938 18 173 3.2 8.0 0.00 0.00 0.00 66 1013.0
20260504194443 18 170 3.2 8.0 0.00 0.00 0.00 68 1013.0
20260504193944 18 256 1.6 6.4 0.00 0.00 0.00 67 1013.0
20260504193443 18 185 1.6 6.4 0.00 0.00 0.00 67 1013.0
20260504192940 17 108 1.6 8.0 0.00 0.00 0.00 70 1013.0
20260504192441 17 233 3.2 9.7 0.00 0.00 0.00 71 1013.0
20260504191941 17 233 3.2 9.7 0.00 0.00 0.00 71 1013.1
20260504191441 16 32 3.2 6.4 0.00 0.00 0.00 73 1013.2
20260504190941 16 89 1.6 6.4 0.00 0.00 0.00 74 1013.2
20260504190441 16 0 1.6 8.0 0.00 0.00 0.00 75 1013.2
20260504185941 16 213 3.2 8.0 0.00 0.00 0.00 74 1013.3
20260504185438 16 149 3.2 8.0 0.00 0.00 0.00 74 1013.3
20260504184939 16 169 3.2 8.0 0.00 0.00 0.00 75 1013.4
20260504184437 16 71 3.2 6.4 0.00 0.00 0.00 75 1013.4
20260504183934 16 191 3.2 6.4 0.00 0.00 0.00 75 1013.4
20260504183434 16 177 3.2 6.4 0.00 0.00 0.00 76 1013.3
20260504182934 16 245 1.6 4.8 0.00 0.00 0.00 77 1013.3
20260504182434 15 150 3.2 6.4 0.00 0.00 0.00 77 1013.3